Location: Bowman Observatory
(41.0326°N, 73.6210°W)
Time: 05:50:38
(UTC-04:00)

Cosmos 2297 - Visible Passes

Search period start: 26 April 2017 00:00
Search period end: 06 May 2017 00:00
Orbit: 835 x 860 km, 71.0° (Epoch: 24 April)

Date Brightness Start Highest point End Pass type
(mag) Time Alt. Az. Time Alt. Az. Time Alt. Az.
26 Apr 5.9 01:18:02 10° NW 01:19:30 16° WNW 01:19:30 16° WNW visible
26 Apr 4.5 23:19:54 10° NNW 23:24:32 43° NE 23:24:32 43° NE visible
27 Apr 5.8 01:04:41 10° NW 01:06:27 17° WNW 01:06:27 17° WNW visible
27 Apr 4.4 23:06:35 10° NNW 23:11:30 44° NE 23:11:30 44° NE visible
28 Apr 5.7 00:51:19 10° NW 00:53:26 19° WNW 00:53:26 19° WNW visible
28 Apr 4.4 22:53:16 10° NNW 22:58:30 44° NE 22:58:30 44° NE visible
29 Apr 5.6 00:37:58 10° NW 00:40:26 21° WNW 00:40:26 21° WNW visible
29 Apr 4.3 22:39:57 10° NNW 22:45:23 43° ENE 22:45:32 43° ENE visible
30 Apr 5.5 00:24:36 10° NW 00:27:27 23° WNW 00:27:27 23° WNW visible
30 Apr 4.3 22:26:37 10° N 22:32:03 42° ENE 22:32:35 41° ENE visible
01 May 5.4 00:11:15 10° NW 00:14:31 24° WNW 00:14:31 24° WNW visible
01 May 4.3 22:13:18 10° N 22:18:42 41° ENE 22:19:39 38° E visible
01 May 5.2 23:57:53 10° NW 00:01:35 26° W 00:01:35 26° W visible
02 May 4.4 22:00:00 10° N 22:05:22 41° ENE 22:06:46 35° E visible
02 May 5.1 23:44:31 10° NW 23:48:42 28° W 23:48:42 28° W visible
03 May 4.4 21:46:40 10° N 21:52:02 40° ENE 21:53:54 31° E visible
03 May 5.0 23:31:10 10° NW 23:35:50 29° W 23:35:50 29° W visible
04 May 4.4 21:33:21 10° N 21:38:41 39° ENE 21:41:05 27° ESE visible
04 May 4.9 23:17:49 10° NW 23:22:40 30° WSW 23:23:01 30° WSW visible
05 May 4.4 21:20:03 10° N 21:25:21 38° ENE 21:28:17 23° ESE visible
05 May 4.9 23:04:27 10° NW 23:09:21 30° WSW 23:10:14 29° WSW visible
